User: anonymous   Login
Location: Unspecified
(0.0000°N, 0.0000°E)
Time: 07:42:25
(UTC+02:00)
Language:

Ariane H10 - Orbit

View from above orbital plane
View from above orbital plane
View from above satellite
View from above satellite

Ground track
Ground track

The orbit data is extracted from the following two-line orbital elements,

1 19122U 88040B   18110.47094602 +.00000239 +00000-0 +15602-2 0  9998
2 19122 007.4649 048.2359 7147476 020.1518 357.4589 02.33471003204135
Epoch (UTC): 20 April 2018 11:18:09
Eccentricity: 0.7147476
inclination: 7.4649°
perigee height: 468 km
apogee height: 34779 km
right ascension of ascending node: 48.2359°
argument of perigee: 20.1518°
revolutions per day: 2.33471003
mean anomaly at epoch: 357.4589°
orbit number at epoch: 20413

The dashed part of the orbit path shows where the satellite is in the earth's shadow,  

DLR